Location: Unspecified
(0.0000°N, 0.0000°E)
Time: 00:32:22
(UTC+00:00)

Explorer 7 - All Passes

Search period start: 21 October 2014 00:00
Search period end: 31 October 2014 00:00
Orbit: 491 x 705 km, 50.3° (Epoch: 20 October)

Date Brightness Start Highest point End Pass type
(mag) Time Alt. Az. Time Alt. Az. Time Alt. Az.
21 Oct - 01:19:01 10° SSW 01:22:37 34° SE 01:26:25 10° ENE night (unlit)
21 Oct - 03:01:30 10° WNW 03:03:24 13° NW 03:05:20 10° NNW night (unlit)
21 Oct - 13:23:33 10° NNW 13:28:23 62° NE 13:32:57 10° SE daylight
22 Oct - 01:28:42 10° SW 01:32:38 87° NW 01:36:49 10° NE night (unlit)
22 Oct - 11:55:48 10° NNE 11:57:28 12° NE 11:59:08 10° ENE daylight
22 Oct - 13:33:38 10° NW 13:38:25 56° SW 13:42:56 10° SSE daylight
23 Oct - 00:00:26 10° SSE 00:02:05 12° SE 00:03:46 10° ESE night (unlit)
23 Oct - 01:39:08 10° WSW 01:42:42 32° NW 01:46:27 10° NNE night (unlit)
23 Oct - 12:03:34 10° N 12:07:38 25° NE 12:11:33 10° ESE daylight
23 Oct - 13:44:28 10° WNW 13:48:25 25° SW 13:52:12 10° S daylight
24 Oct - 00:08:40 10° S 00:12:05 30° SE 00:15:39 10° ENE night (unlit)
24 Oct - 01:50:46 10° W 01:52:49 14° NW 01:54:55 10° NNW night (unlit)
24 Oct - 12:12:51 10° NNW 12:17:42 56° NE 12:22:21 10° SE daylight
24 Oct - 13:57:05 10° WSW 13:58:26 11° SW 13:59:47 10° SW daylight
25 Oct - 00:18:13 10° SW 00:22:04 83° SE 00:26:08 10° NE night (unlit)
25 Oct - 10:45:38 10° NE 10:46:45 11° NE 10:47:51 10° ENE daylight
25 Oct - 12:22:49 10° NW 12:27:42 63° SW 12:32:23 10° SSE daylight
25 Oct - 22:50:39 10° SE 22:51:29 11° SE 22:52:19 10° ESE night (unlit)
26 Oct - 00:28:31 10° WSW 00:32:05 35° NW 00:35:49 10° NNE night (unlit)
26 Oct - 10:52:55 10° N 10:56:52 23° NE 11:00:44 10° ESE daylight
26 Oct - 12:33:29 10° WNW 12:37:41 28° SW 12:41:44 10° S daylight
26 Oct - 22:58:14 10° S 23:01:28 26° SE 23:04:48 10° ENE night (unlit)
27 Oct - 00:39:56 10° W 00:42:09 15° NW 00:44:25 10° NNW night (unlit)
27 Oct - 11:02:03 10° NNW 11:06:54 51° NE 11:11:36 10° SE daylight
27 Oct - 12:45:29 10° W 12:47:40 13° SW 12:49:50 10° SSW daylight
27 Oct - 23:07:38 10° SSW 23:11:25 73° SE 23:15:21 10° NE night (unlit)
28 Oct - 11:11:54 10° NW 11:16:53 71° SW 11:21:42 10° SSE daylight
28 Oct - 23:17:48 10° WSW 23:21:23 39° NW 23:25:06 10° NNE night (unlit)
29 Oct - 09:42:11 10° N 09:46:00 22° NE 09:49:45 10° ESE daylight
29 Oct - 11:22:25 10° WNW 11:26:50 31° SW 11:31:07 10° S daylight
29 Oct - 21:47:42 10° S 21:50:45 23° SE 21:53:51 10° ENE night (unlit)
29 Oct - 23:29:01 10° W 23:31:24 16° NW 23:33:50 10° NNW night (unlit)
30 Oct - 09:51:11 10° NNW 09:56:00 46° NE 10:00:43 10° SE daylight
30 Oct - 11:34:03 10° W 11:36:48 15° SW 11:39:30 10° SSW daylight
30 Oct - 21:56:56 10° SSW 22:00:40 63° SE 22:04:30 10° NE night (unlit)
